{"data":{"norad_id":69197,"intl_designator":"2026-114R","name":"STARLINK-37419","alt_names":[],"object_type":"PAYLOAD","status":"ACTIVE","operator":null,"country":"US","launch_date":"2026-05-25","launch_site_code":"AFETR","launch_vehicle":null,"mission":null,"orbit_class":"UNKNOWN","rcs_meters":null,"size_class":null,"mass_kg":null,"dimensions":null,"purposes":["comms"],"wikipedia_slug":null,"has_3d_model":false,"image_url":null,"decayed_at":null,"tle_current":{"epoch":"2026-09-20T00:38:39.780384Z","epoch_age_seconds":67906,"freshness":"FRESH","line1":"1 69197U 26114R   26263.02684931  .00012772  00000+0  38865-3 0  9999","line2":"2 69197  53.1564 115.9182 0001117  83.3757 276.7372 15.34388461 19375","mean_motion":15.34388461,"eccentricity":0.0001117,"inclination_deg":53.1564,"raan_deg":115.9182,"arg_perigee_deg":83.3757,"mean_anomaly_deg":276.7372,"bstar":0.00038865,"rev_number":1937,"period_min":93.848463840866,"perigee_km":461.97341107601,"apogee_km":463.50166244753,"semimajor_km":6840.8745367618,"source":"CELESTRAK","updated_at":"2026-09-20T09:00:44.098662Z"}}}